STARLINK-30876, 58404

Orbit data source: Space-Track

STARLINK-30876, 58404 is a payload satellite owned by SpaceX/Seattle (US) in LEO that was launched on Wed, 22 Nov 2023 UTC via an FALCON 9 launch vehicle from the Air Force Eastern Test Range (AFETR). Payload-class satellites include a variety of spacecraft equipped with specific instruments for various scientific and technological missions. These include communications satellites like Starlink; space stations such as the ISS; scientific satellites like the Hubble; Earth observation satellites from companies like Planet Labs, Umbra, and HawkEye 360; GPS; miniature CubeSats for education and research; and military/defense satellites.

Loading next visibility...
Identifier
58404, 2023-180C
Orbit
LEO
Country
Flag of USUS
Related business
Manufacturer
SpaceX/Seattle
Mission
Operational Commercial Communications
Bus & Motor
STARLINK V2M, Unknown motor
Mass
730 kg wet, ~700 kg dry
Launch date (UTC)
2023-11-22 (2 years ago)
Launch vehicle
FALCON 9
Launch site
Air Force Eastern Test Range (AFETR)
Object type
Payload
Rocket body
Debris
Shape & HBR
Box + 2 Pan, 14.5 m
Radar Cross Section
33.884 m², Large (>1 m²)

Expand to show TLE details & history
Last TLE update: 20 hours ago

TLE from 20 hours ago
0 STARLINK-30876
1 58404U 23180C   25249.96535491  .00003742  00000-0  29184-3 0  9992
2 58404  43.0034 334.7270 0001687 262.5952  97.4699 15.02546737 99941
Epoch: 2025-09-06T23:10Z
TLE epoch observation values (Epoch: 2025-09-06T23:10:06.664Z)
Latitude
0.00001°
Longitude
0.90763°
Altitude
558.977 km
Speed
7.584 km/s
True Right ascension
22h 18m 54s
True Declination
0° 00' 00"
Sunlit
Object was in full shadow at epoch
Visualization orbit readout
Latitude
Unknown
Longitude
Unknown
Altitude
Unknown
Speed
Unknown
Apparent Right ascension
Unknown
Apparent Declination
Unknown
Sunlit
N/A
Visualization observer readout
Local Sidereal Time
11:41:01
Azimuth
Unknown
Elevation
Unknown
Doppler factor
Unknown
Orbital elements
Apogee altitude
562.14 km
Perigee altitude
559.799 km
Semi-major axis
6,939.107 km
Eccentricity
0.00017
Inclination
43.0034°
RAAN
334.727°
Arg. of periapsis
262.5952°
True anomaly
97.48907°
Mean anomaly
97.4699°
Eccentric anomaly
97.47948°
Mean motion
3.75481 °/min
Orbital period
95.88 mins
BSTAR
0.00029184
Loading maneuver chart data...
Computing Atmospheric mass density...
Loading historical data...
Loading historical data...
Loading historical data...
Loading historical data...
Loading historical data...
Loading historical data...
Loading historical data...

Documentation

Showing up to 5 results
|